SB KEPS @ AMSAT $ORB13164.N 2Line Orbital Elements 13164.AMSAT
HR AMSAT ORBITAL ELEMENTS FOR AMATEUR SATELLITES IN NASA FORMAT FROM WA5QGD FORT WORTH,TX June 13, 2013 BID: ORB13164.N
DECODE 2-LINE ELSETS WITH THE FOLLOWING KEY: 1 AAAAAU 00 0 0 BBBBB.BBBBBBBB .CCCCCCCC 00000-0 00000-0 0 DDDZ 2 AAAAA EEE.EEEE FFF.FFFF GGGGGGG HHH.HHHH III.IIII JJ.JJJJJJJJKKKKKZ KEY: A-CATALOGNUM B-EPOCHTIME C-DECAY D-ELSETNUM E-INCLINATION F-RAAN G-ECCENTRICITY H-ARGPERIGEE I-MNANOM J-MNMOTION K-ORBITNUM Z-CHECKSUM
TO ALL RADIO AMATEURS BT
AO-07 1 07530U 74089B 13164.83681130 -.00000017 00000-0 16313-3 0 7059 2 07530 101.4300 154.4642 0011418 295.9011 126.9188 12.53596543765369 FO-29 1 24278U 96046B 13164.82317723 .00000003 00000-0 37638-4 0 1374 2 24278 098.5562 223.8407 0351028 172.7120 307.8041 13.53002037830856 SO-33 1 25509U 98061B 13164.14415692 .00000388 00000-0 65399-4 0 5162 2 25509 031.4329 090.5106 0351231 122.5762 007.6070 14.29084269764312 RS-22 1 27939U 03042A 13164.76588939 .00000313 00000-0 67539-4 0 4973 2 27939 097.7986 352.7928 0012897 193.3056 166.7812 14.64473335518799 VO-52 1 28650U 05017B 13164.14009008 .00000520 00000-0 68376-4 0 4470 2 28650 097.5680 182.9501 0024199 294.6310 105.4157 14.83908529438483 HO-68 1 36122U 09072B 13164.70560579 -.00000044 00000-0 00000 0 0 6362 2 36122 100.3060 221.8462 0007546 005.4878 354.6312 13.16305035167954 UO-11 1 14781U 84021B 13164.18875160 .00000190 00000-0 31328-4 0 2047 2 14781 097.9033 225.5581 0007457 304.1934 055.8571 14.80910577573344 AO-16 1 20439U 90005D 13164.46081054 .00000036 00000-0 29433-4 0 7706 2 20439 098.4703 104.5744 0011426 164.1899 311.0726 14.32179929221707 LO-19 1 20442U 90005G 13164.07009381 .00000027 00000-0 25882-4 0 7030 2 20442 098.4394 105.9913 0012560 156.7619 264.2123 14.32390668221847 AO-27 1 22825U 93061C 13164.07540632 .00000024 00000-0 26709-4 0 4067 2 22825 098.6175 108.1435 0007283 303.9770 117.1584 14.29568438 28049 IO-26 1 22826U 93061D 13164.44287435 .00000027 00000-0 27457-4 0 1632 2 22826 098.6115 108.7946 0007751 294.7713 214.1588 14.29853197 28222 GO-32 1 25397U 98043D 13164.81562385 .00000035 00000-0 33961-4 0 954 2 25397 098.4137 132.7202 0000557 024.5799 035.6357 14.23344404775467 NO-44 1 26931U 01043C 13164.76735270 .00000008 00000-0 35079-4 0 3496 2 26931 067.0525 268.3242 0007649 280.9913 222.3665 14.29931715610930 SO-50 1 27607U 02058C 13164.10989742 .00000191 00000-0 50596-4 0 881 2 27607 064.5577 276.5497 0045574 165.6025 252.9671 14.72959583563119 CO-55 1 27844U 03031E 13163.84935307 .00000128 00000-0 78698-4 0 6704 2 27844 098.7005 172.9846 0008521 258.8264 223.3314 14.21226003516117 CO-57 1 27848U 03031J 13164.83494507 .00000100 00000-0 66259-4 0 6160 2 27848 098.7090 173.4668 0008458 262.0147 221.1551 14.20951319516189 AO-51 1 28375U 04025K 13164.84058683 .00000107 00000-0 44685-4 0 5819 2 28375 098.2006 120.4334 0083803 027.1729 355.2428 14.41125627470855 CP3 1 31129U 07012N 13164.48154214 .00000448 00000-0 11013-3 0 4844 2 31129 097.8970 157.3281 0101634 079.3988 038.3796 14.53669846326452 CO-65 1 32785U 08021C 13164.18955573 .00000510 00000-0 67667-4 0 6577 2 32785 097.7519 221.8385 0012997 324.1818 068.9740 14.83903953277284 PRISM 1 33493U 09002B 13164.78070310 .00002375 00000-0 27762-3 0 8964 2 33493 098.2169 321.5974 0017722 200.1566 159.8927 14.86020412237415 SOHLA-1 1 33496U 09002E 13164.38507933 .00000151 00000-0 33285-4 0 701 2 33496 098.1345 280.4135 0005682 343.9975 057.0285 14.70301007235315 SO-67 1 35870U 09049F 13164.82791807 .00003821 00000-0 14616-3 0 1494 2 35870 097.1916 193.6957 0002091 032.0954 054.2019 15.27158125207741 TISAT-1 1 36799U 10035E 13164.88021818 .00001635 00000-0 20580-3 0 1663 2 36799 098.0343 249.5496 0015999 080.3674 279.9296 14.83347271158089 STUDSAT 1 36801U 10035G 13163.33877961 .00003303 00000-0 36193-3 0 6435 2 36801 098.0454 251.0950 0012525 070.3822 330.3410 14.88418177158006 ALMASAT-1 1 38078U 12006B 13164.61798220 .00020859 00000-0 52519-3 0 3493 2 38078 069.4725 209.3132 0694276 151.8085 212.2515 14.24958232 68735 XATCOBEO 1 38082U 12006F 13164.83022896 .00046471 32915-5 91244-3 0 2301 2 38082 069.4679 184.4329 0572930 138.2272 283.9674 14.56017901 69431 SOMP 1 39135U 13015F 13164.54642441 .00002723 00000-0 22923-3 0 1218 2 39135 064.8776 220.0168 0014489 207.1435 152.8919 15.00275945 8289 CUBEBUG-1 1 39153U 13018D 13164.88273417 .00000958 00000-0 14479-3 0 1519 2 39153 098.0747 240.6307 0019888 094.3809 265.9630 14.76440863 7198 ESTCUBE-1 1 39161U 13021C 13164.75830846 .00000756 00000-0 13744-3 0 1063 2 39161 098.1262 243.0329 0010785 120.8339 239.3914 14.68969511 5499 NOAA-10 1 16969U 86073A 13164.34524663 .00000014 00000-0 23375-4 0 3907 2 16969 098.5457 192.2676 0011201 253.7868 227.8276 14.27644500391390 NOAA-11 1 19531U 88089A 13164.49343876 -.00000017 00000-0 13647-4 0 3955 2 19531 098.7108 247.6137 0010150 270.6436 159.6963 14.15018247275601 NOAA-12 1 21263U 91032A 13164.40170317 .00000014 00000-0 24550-4 0 8609 2 21263 098.6971 189.8181 0013221 226.7546 246.8721 14.25570191148012 MET-3/5 1 21655U 91056A 13164.37561137 .00000210 00000-0 51327-3 0 7136 2 21655 082.5570 256.9845 0014477 137.0460 223.1796 13.17044296 49438 MET-2/21 1 22782U 93055A 13164.45276197 .00000064 00000-0 44368-4 0 7648 2 22782 082.5501 105.8856 0021711 216.4323 297.1352 13.83707895999120 OKEAN-4 1 23317U 94066A 13163.81467668 .00000466 00000-0 52331-4 0 2437 2 23317 082.5395 053.8898 0019951 237.5737 190.9359 14.84487675 8299 NOAA-14 1 23455U 94089A 13164.46392484 -.00000078 00000-0 -18011-4 0 3462 2 23455 098.8029 248.9592 0009392 015.6703 049.3733 14.13910570951848 NOAA-15 1 25338U 98030A 13164.50661265 .00000098 00000-0 60427-4 0 7658 2 25338 098.7237 154.7313 0011694 135.3752 333.6857 14.25229291784326 RESURS 1 25394U 98043A 13164.50549755 -.00000016 00000-0 10776-4 0 3988 2 25394 098.3608 140.5209 0000444 198.7675 269.3722 14.24332096775830 FENGYUN1 1 25730U 99025A 13164.50211162 .00000416 00000-0 25704-3 0 8941 2 25730 098.8769 124.0587 0026991 058.8699 065.0661 14.10541159725521 OKEAN-0 1 25860U 99039A 13164.78785773 .00000222 00000-0 40883-4 0 9700 2 25860 097.9893 127.2826 0001967 121.8576 299.3538 14.74613811747855 NOAA-16 1 26536U 00055A 13164.45419113 -.00000012 00000-0 18262-4 0 2456 2 26536 099.0432 217.1834 0011474 143.2335 334.8903 14.12885345656047 NOAA-17 1 27453U 02032A 13164.50317480 .00000024 00000-0 27911-4 0 1623 2 27453 098.3122 178.7800 0012282 171.2756 336.9251 14.24595887570197 NOAA-18 1 28654U 05018A 13164.47923865 .00000216 00000-0 14361-3 0 6497 2 28654 099.0986 132.6423 0013759 215.2065 291.8325 14.11825218415536 NOAA-19 1 33591U 09005A 13164.48992194 .00000064 00000-0 59318-4 0 8322 2 33591 098.9027 106.5836 0015271 081.8335 026.7436 14.11513115223975 HUBBLE 1 20580U 90037B 13163.75160075 .00001016 00000-0 60157-4 0 2601 2 20580 028.4704 301.9100 0003138 308.2990 144.9090 15.03683637 69028 ISS 1 25544U 98067A 13164.89575256 .00004423 00000-0 83140-4 0 9984 2 25544 051.6483 124.6645 0010904 067.6023 341.0605 15.50774041834193 CO-58 1 28895U 05043F 13164.58915405 .00000305 00000-0 70735-4 0 4995 2 28895 097.8711 020.0885 0019108 094.2044 266.1342 14.61127123406419 FALCON 1 30776U 07006E 13164.58231953 .00002293 00000-0 13820-3 0 6346 2 30776 035.4297 224.3467 0002066 260.8760 217.3992 15.10676290344872 MAST 1 31126U 07012K 13164.57902088 .00000312 00000-0 78912-4 0 7789 2 31126 097.8807 160.7059 0094403 064.6068 049.2387 14.54580516326791 CAPE1 1 31130U 07012P 13164.67327195 .00000491 00000-0 12007-3 0 7864 2 31130 097.8976 157.1458 0102069 079.6735 281.5950 14.53494705326263 COMPASS 1 32787U 08021E 13164.16309217 .00000768 00000-0 94953-4 0 6488 2 32787 097.7530 222.8310 0013242 319.8813 040.1423 14.85521508277361 AAUSAT2 1 32788U 08021F 13163.76896401 .00001070 00000-0 12842-3 0 6337 2 32788 097.7539 223.0720 0012782 321.3061 038.7238 14.85982083277344 DO-64 1 32789U 08021G 13164.81815968 .00001741 00000-0 19257-3 0 6639 2 32789 097.7685 227.8481 0012146 309.5442 114.6127 14.88604081277622 CO-66 1 32791U 08021J 13164.19837287 .00000746 00000-0 94322-4 0 6339 2 32791 097.7530 222.2335 0013819 321.2033 071.6449 14.84655542277281 RS-30 1 32953U 08025A 13164.84109623 .00000010 00000-0 00000 0 0 9423 2 32953 082.5045 070.2749 0017338 239.9298 120.0058 12.43034434229491 METEOR-M 1 35865U 09049A 13164.77780709 -.00000009 00000-0 15488-4 0 5377 2 35865 098.6021 217.2855 0003333 082.1931 277.9620 14.21888058193989 RS-38 1 35869U 09049E 13164.74133901 .00000041 00000-0 37953-4 0 4975 2 35869 098.5968 217.1659 0005544 082.7570 277.4235 14.22132501194001 JUGNU 1 37839U 11058B 13163.86406829 .00000331 00000-0 35182-4 0 4065 2 37839 019.9626 332.9810 0018972 236.3168 270.6084 14.12160330 86289 SRMSAT 1 37841U 11058D 13163.84067344 .00000332 00000-0 37958-4 0 4087 2 37841 019.9732 345.0907 0011782 189.2943 293.6014 14.10229722 86154 RAX-2 1 37853U 11061D 13164.59117880 .00003022 00000-0 23375-3 0 5265 2 37853 101.7142 016.5588 0235176 037.8543 356.5273 14.83663168 87913 AUBIESAT 1 37854U 11061E 13163.54313628 .00002941 00000-0 22317-3 0 5217 2 37854 101.7174 015.8822 0235137 039.4853 017.6312 14.84370899 87771 HRBE 1 37855U 11061F 13164.16457578 .00002380 00000-0 18369-3 0 5208 2 37855 101.7175 016.5575 0236145 038.1644 080.5417 14.84038970 87855 RS-39 1 38051U 11062C 13164.91561343 .00008578 00000-0 27880-3 0 5323 2 38051 051.6362 226.3684 0010917 257.1805 085.3526 15.32667613 77271 E-STAR 1 38079U 12006C 13164.81325976 .00031612 30471-5 66584-3 0 2080 2 38079 069.4733 190.8151 0610988 141.7743 281.5005 14.46716207 69256 GOLIAT 1 38085U 12006J 13164.62110111 .00037014 30855-5 77449-3 0 1213 2 38085 069.4724 193.4200 0621363 143.1461 356.0025 14.44567792 69160 HORYU-2 1 38340U 12025D 13164.09014551 .00000619 00000-0 10931-3 0 5256 2 38340 098.2149 111.7071 0011369 267.8933 092.0954 14.70954482 57510 RS-40 1 38736U 12041D 13164.04778398 .00000010 00000-0 00000 0 0 2955 2 38736 082.4776 157.7052 0021164 339.8185 020.2056 12.42868573 39734 PROITERES 1 38756U 12047B 13164.85710280 .00000521 00000-0 86797-4 0 8683 2 38756 098.2532 241.8397 0013751 114.2412 246.0214 14.74232956 40901 RAIKO 1 38852U 98067CN 13164.28229029 .00125467 00000-0 66568-3 0 2548 2 38852 051.6374 108.5632 0009569 022.6221 337.5200 15.79569186 39259 FITSAT 1 1 38853U 98067CP 13164.84384705 .00289465 43827-4 74142-3 0 2605 2 38853 051.6365 099.5362 0005278 059.7904 300.3626 15.94779693 39478 TechEdSat 1 38854U 98067CQ 13124.93253577 .11592855 12481-4 94246-3 0 2908 2 38854 051.6449 297.0261 0010505 310.8629 049.0629 16.38844728 33294 F 1 1 38855U 98067CR 13129.77714356 .27424026 12535-4 30797-3 0 2871 2 38855 051.5085 272.4145 0008326 194.2908 166.5495 16.49710473 33949 WeWish 1 38856U 98067CS 13069.98095549 .16701328 12537-4 10063-2 0 2487 2 38856 051.6166 215.0521 0008325 316.0438 044.8765 16.41348316 24586 OSSI-1 1 39131U 13015B 13113.49391669 .00171511 13909-4 85875-3 0 37 2 39131 064.8913 019.7169 0213781 058.2074 115.1737 15.55484603 636 BEESAT-3 1 39134U 13015E 13164.61235129 .00002909 00000-0 24372-3 0 1403 2 39134 064.8766 219.8016 0013825 208.6131 151.4194 15.00320813 8293 BEESAT-2 1 39136U 13015G 13164.54561767 .00002659 00000-0 22410-3 0 1398 2 39136 064.8776 220.0118 0014129 207.9025 152.1337 15.00295666 8288 /EX